Temperature
23 23 23 23 20 20 23 25 25 26 26 26 26 25 23 22 22 21 21 20 20 20 20 20 20 20 20 20 20 20 20 20 20 20 20 20 20 20 20 20 20 20 20 20 20 19 19 19 19
24 24 24 23 20 21 24 25 26 27 27 26 26 25 23 22 21 20 20 20 21 20 20 20 20 20 20 20 20 20 20 20 20 20 20 20 20 20 20 20 20 20 20 20 20 19 19 19 19
25 24 24 21 22 22 25 25 26 28 28 27 25 25 23 22 21 20 21 20 21 21 20 20 20 20 20 20 20 20 20 20 20 20 20 20 20 20 20 20 20 20 20 19 19 19 19 19 19
25 24 24 22 24 24 25 26 27 27 27 26 25 23 23 22 22 22 21 21 21 21 20 20 20 20 20 20 19 19 19 19 20 20 20 20 20 20 20 20 20 20 20 19 19 19 19 19 19
25 24 22 23 25 26 26 28 28 26 26 25 24 22 22 22 22 21 21 21 21 21 20 20 20 20 20 19 19 19 19 19 19 19 19 19 19 20 20 19 19 19 19 19 19 19 19 19 19
26 23 22 23 25 27 27 28 28 26 25 24 23 22 22 22 21 21 21 21 21 21 21 20 20 20 20 20 19 19 19 19 19 19 19 19 19 19 19 19 19 19 19 19 19 19 19 19 19
25 22 23 23 24 26 27 28 28 26 25 25 24 22 21 21 21 21 21 21 21 21 21 21 20 20 20 20 19 19 19 19 19 19 19 19 19 19 19 19 19 19 19 19 19 19 19 19 19
26 22 23 23 24 25 27 28 28 28 26 26 25 22 22 22 21 21 21 21 21 21 21 21 21 20 20 20 20 19 19 19 19 19 19 19 19 19 19 19 19 19 19 19 19 19 19 19 19
26 21 22 22 22 23 26 27 28 28 27 26 26 25 24 23 22 21 21 21 21 21 21 21 21 21 20 20 20 19 19 19 19 19 19 19 19 19 19 19 19 19 19 19 19 19 19 19 19
25 21 23 22 22 23 25 26 27 27 26 25 25 25 24 23 22 22 21 21 21 21 21 21 21 21 20 20 20 19 19 19 19 19 19 19 18 18 18 18 19 19 19 19 19 19 19 19 18
25 23 23 23 25 25 26 26 27 26 24 25 24 24 23 23 23 22 22 22 22 22 21 21 21 21 21 20 20 20 19 19 19 19 19 18 18 18 18 18 18 19 19 19 19 18 18 18 18
26 25 25 25 26 26 26 26 26 26 25 25 25 24 23 23 23 23 23 23 22 22 22 22 21 21 21 21 20 20 19 19 19 19 19 18 18 18 18 18 18 18 19 19 18 18 18 18 18
26 26 26 26 26 26 26 26 25 24 25 25 24 24 23 23 23 23 23 22 22 22 22 22 22 21 21 21 20 20 20 19 19 19 19 18 18 18 18 18 18 18 18 18 18 18 18 18 18
27 27 27 26 27 26 25 24 23 22 23 24 23 23 23 23 22 22 22 22 22 22 22 22 22 21 21 21 21 20 20 20 19 19 19 19 18 18 18 18 18 18 18 18 18 18 18 18 18
27 26 25 25 25 24 24 22 21 21 22 22 22 22 22 21 21 21 21 21 22 22 22 22 22 21 21 21 21 21 20 20 20 19 19 19 18 18 18 18 18 18 18 18 18 18 18 18 18
25 24 23 23 23 23 23 21 20 21 21 20 20 20 20 20 20 20 20 20 21 21 21 21 21 21 21 21 21 21 20 20 20 20 19 19 19 18 18 18 18 18 18 18 18 18 18 18 18
21 22 22 22 22 22 21 20 19 20 19 19 18 18 18 18 19 19 19 20 20 20 20 20 21 21 21 21 21 21 20 20 20 20 19 19 19 19 18 19 19 19 18 18 18 18 18 18 18
21 21 22 21 21 21 19 18 18 18 17 17 16 16 16 17 17 17 18 19 19 19 20 20 20 20 20 21 21 20 20 20 20 20 19 19 19 19 19 19 19 19 18 18 18 18 18 18 18
21 21 20 21 21 20 18 17 16 16 16 15 15 15 15 15 16 17 17 18 19 19 19 19 20 20 20 20 20 20 20 20 20 20 19 19 19 19 19 19 19 19 18 18 18 18 18 18 18
20 19 19 20 21 20 17 16 16 15 15 14 14 14 14 14 15 16 17 17 18 18 18 19 19 19 19 20 20 20 20 20 20 20 19 19 19 19 19 19 19 19 18 18 18 18 18 18 18
20 19 19 19 19 19 17 15 14 14 14 14 13 13 13 13 13 14 15 16 16 17 17 18 18 19 19 19 19 19 19 19 19 19 19 19 18 18 18 18 18 18 18 18 18 18 18 18 17
18 19 19 19 18 16 17 14 12 13 13 13 12 12 12 12 13 14 14 15 15 16 16 17 17 18 19 19 19 19 19 19 19 19 18 18 18 18 18 18 18 18 18 18 18 17 17 17 17
18 18 18 18 17 15 15 13 12 12 12 12 12 12 12 12 12 13 13 14 14 15 15 16 16 17 18 18 19 19 19 19 19 18 18 18 17 17 17 17 17 17 17 17 17 17 17 17 17
17 16 16 14 14 14 13 13 12 11 11 11 12 12 11 11 12 12 13 13 14 14 14 15 15 16 16 17 17 18 18 18 18 18 18 17 17 17 17 16 16 16 17 17 16 16 16 16 16
15 13 13 13 12 13 13 12 11 11 12 11 11 11 11 11 11 12 12 13 13 13 14 14 14 15 15 15 16 16 17 17 17 17 17 17 16 16 16 16 16 16 16 16 16 16 16 16 16
15 13 12 13 13 12 12 12 11 12 12 12 11 11 11 11 11 11 12 12 13 13 13 13 14 14 14 14 15 15 15 16 16 16 16 16 15 15 15 15 15 15 15 15 15 15 15 15 15
15 13 14 12 13 12 12 12 12 12 12 12 11 11 11 11 11 11 12 12 12 13 13 13 13 13 14 14 14 14 14 15 15 15 15 15 15 15 15 15 14 14 15 15 15 15 15 15 15
14 14 11 11 12 12 12 11 10 11 11 11 11 11 10 11 11 11 11 12 12 12 12 13 13 13 13 13 14 14 14 14 14 14 14 14 14 14 14 14 14 14 14 14 14 15 15 15 15
13 13 11 10 11 11 11 11 11 11 11 10 11 10 11 11 11 11 11 12 12 12 12 13 13 13 13 13 13 13 13 14 14 14 14 14 14 14 14 14 14 14 14 14 14 14 15 15 15
14 13 11 11 10 10 10 10 12 11 11 11 11 11 11 11 11 11 12 12 12 12 12 12 13 13 13 13 13 13 13 13 14 14 14 14 14 14 14 14 14 14 14 14 14 14 15 15 15
Wind_Speed
3 1 3 2 5 6 4 2 4 6 5 5 8 10 8 5 3 6 6 15 17 15 16 18 18 17 16 16 16 15 15 14 14 14 13 13 13 12 12 11 11 11 11 11 11 10 10 10 9
0 2 2 4 6 5 1 2 6 4 7 8 8 8 7 6 6 9 8 15 18 16 17 17 18 17 16 15 15 15 15 14 14 13 13 13 12 12 11 11 11 11 10 10 10 10 9 9 8
2 3 3 4 4 6 4 4 5 4 7 6 6 6 6 6 8 6 11 18 17 15 16 17 19 17 16 15 15 15 14 14 13 13 12 12 12 11 11 11 11 11 10 10 9 8 8 7 6
1 3 5 4 3 6 7 6 5 6 7 6 7 6 4 4 6 12 19 18 17 14 16 18 18 17 16 15 15 15 14 14 13 13 12 11 11 11 10 10 10 10 10 9 9 8 7 6 5
3 4 5 3 0 2 3 4 6 7 5 5 8 6 4 4 16 22 19 18 17 13 15 17 18 17 16 15 15 15 14 14 13 13 12 11 11 10 10 10 10 10 10 9 8 7 6 5 4
4 5 4 2 3 2 1 3 8 11 9 8 9 6 3 8 17 19 18 16 16 16 14 16 18 17 16 15 15 15 15 14 14 13 12 11 11 10 10 10 9 9 8 8 7 6 5 4 3
4 4 2 2 3 4 3 4 7 8 8 7 8 7 5 7 13 16 16 15 15 14 13 14 16 16 16 15 15 15 15 15 14 13 13 12 11 10 10 10 9 8 7 6 5 4 4 3 1
4 4 3 4 4 4 5 3 5 8 7 8 7 9 7 10 12 14 15 14 13 12 12 11 14 15 14 15 15 15 15 15 15 14 13 13 12 11 11 10 9 8 7 6 5 4 3 2 2
4 5 2 2 3 5 6 4 4 6 7 3 3 6 11 15 14 14 12 11 12 12 11 11 11 13 14 14 15 16 16 16 15 15 15 13 12 11 11 11 10 9 8 7 6 5 4 4 4
5 4 2 3 3 4 5 4 3 5 7 5 6 7 14 14 15 16 16 16 16 15 14 12 12 12 13 14 14 13 14 14 14 14 14 13 12 12 11 12 12 11 9 8 7 7 6 6 6
3 5 4 3 4 3 3 4 3 6 4 4 10 13 14 12 13 15 17 18 18 17 16 15 14 12 12 9 11 11 11 12 13 14 15 13 12 11 11 10 11 10 10 8 7 7 7 7 7
2 2 6 6 5 2 1 1 4 5 1 3 9 12 11 10 11 11 13 15 14 16 17 16 16 13 13 11 10 10 9 9 10 14 15 12 8 7 8 8 10 9 9 8 7 6 8 8 9
2 0 1 3 5 3 1 3 5 8 7 7 9 9 7 6 4 3 4 7 10 14 15 16 17 16 13 11 9 10 9 10 12 14 15 15 8 6 7 7 9 10 10 8 6 6 6 6 7
2 1 2 2 3 3 5 6 7 9 10 11 11 7 5 5 4 3 2 1 5 9 12 14 16 16 14 13 11 10 11 12 13 13 16 17 13 9 8 6 7 9 11 10 8 6 5 4 4
2 4 6 5 3 3 6 9 8 7 10 12 11 10 10 9 9 8 6 5 3 0 3 8 13 13 15 14 13 10 11 12 10 12 16 17 15 13 10 8 8 9 12 11 7 5 4 3 4
5 5 4 5 5 4 7 4 6 8 11 12 11 11 11 10 10 10 10 10 9 7 5 3 6 9 12 12 12 9 10 10 10 13 14 16 16 15 10 8 9 11 11 7 4 4 3 3 3
7 4 4 5 7 4 6 4 8 10 13 13 13 13 12 13 15 13 12 11 11 10 9 7 5 2 7 9 10 9 8 9 9 11 11 14 16 15 10 7 7 10 6 5 5 3 3 3 3
3 3 4 5 7 7 8 7 11 14 16 15 15 14 14 14 14 14 13 12 11 10 10 9 8 7 4 4 5 5 7 8 7 8 9 12 13 14 11 6 7 7 5 5 4 4 3 3 3
4 6 5 4 5 7 10 11 13 16 18 17 16 15 15 14 13 13 13 13 12 12 11 10 9 8 4 2 3 5 6 6 6 7 8 10 11 12 10 7 7 6 6 6 6 4 4 2 2
9 7 6 4 5 5 9 12 12 17 18 16 16 16 17 17 18 17 16 14 13 12 12 11 10 8 6 3 3 3 4 4 5 4 5 7 8 10 9 9 7 7 6 6 5 5 4 2 2
6 5 4 5 6 4 7 7 12 11 16 18 18 16 16 17 17 17 17 14 13 13 12 11 10 9 8 6 3 1 1 0 2 3 4 4 5 6 6 6 6 6 6 5 5 5 6 4 2
4 5 5 4 3 3 3 2 8 11 15 20 19 18 17 17 16 15 15 15 14 13 11 10 10 9 8 7 3 4 5 6 6 5 4 3 3 4 6 5 5 5 4 5 5 5 4 5 3
5 8 6 3 1 2 6 5 6 9 14 19 18 17 17 17 16 15 14 13 12 12 11 10 10 10 9 8 5 3 4 5 4 5 6 5 3 3 4 5 5 6 5 5 5 5 5 4 4
6 6 7 6 5 5 6 4 6 8 13 16 17 17 16 15 15 15 13 11 11 11 10 10 9 9 9 9 7 4 1 4 6 6 6 5 4 4 4 5 4 4 4 4 5 5 5 4 4
9 7 6 8 7 3 4 6 3 7 10 12 15 16 15 14 13 14 14 13 12 11 10 9 9 8 9 8 8 7 5 3 4 4 4 4 3 3 4 4 4 3 3 4 4 4 4 4 5
6 6 5 2 1 2 5 4 2 6 9 10 11 13 14 14 13 13 13 11 10 10 9 8 8 8 8 8 7 7 7 5 4 4 4 3 2 2 2 3 2 2 2 2 3 3 4 4 5
5 4 1 5 2 3 3 3 4 8 12 12 14 15 15 15 14 13 13 11 10 9 9 8 7 7 7 7 6 7 7 6 6 5 4 3 2 2 2 2 1 1 1 2 2 2 3 3 3
5 2 6 5 3 2 2 3 6 13 15 15 16 15 15 15 14 14 12 10 9 9 8 8 8 7 7 7 6 6 6 6 6 6 5 4 4 4 3 3 1 1 1 2 2 2 2 3 2
8 6 5 5 4 3 2 3 4 7 9 11 12 13 13 13 12 12 11 10 9 9 9 8 8 8 8 8 7 7 7 6 6 5 5 4 3 2 2 1 1 1 2 1 1 2 2 2 3
5 5 3 5 3 3 3 2 6 6 7 8 10 10 10 10 10 10 10 10 10 10 9 9 8 8 8 7 7 7 6 6 6 5 5 4 3 3 3 2 3 2 2 2 1 1 1 3 3
Wind_Direction
285 212 121 81 54 56 82 82 87 59 64 71 82 86 87 70 98 137 139 146 139 148 153 150 147 141 137 135 133 131 129 126 124 121 119 117 116 114 112 110 108 106 104 102 101 102 105 108 108
281 138 110 62 80 80 64 116 87 97 131 121 85 86 83 71 85 105 122 143 142 147 150 151 149 145 142 139 137 135 132 130 127 125 123 121 120 118 117 116 114 110 106 104 101 100 103 106 106
237 174 96 65 112 146 164 187 147 113 112 104 84 64 80 111 115 115 141 142 141 146 150 154 152 149 147 144 142 140 137 135 133 131 128 126 124 123 122 121 120 116 113 109 105 102 103 104 104
89 64 51 72 147 192 174 192 154 105 69 66 94 63 58 128 131 133 141 143 142 146 150 156 155 154 153 151 149 146 144 141 139 137 135 132 131 129 127 125 123 122 119 116 113 108 109 110 109
84 69 42 38 95 206 177 157 117 107 89 80 89 82 40 52 123 135 144 145 144 146 152 159 159 159 159 158 157 154 151 149 146 145 143 141 138 134 131 128 126 125 123 121 117 114 115 117 111
57 63 56 19 345 358 51 95 92 97 114 114 106 102 84 121 132 144 147 147 147 150 156 161 163 164 165 164 162 161 159 156 153 152 151 150 147 143 140 136 132 130 129 127 123 120 123 125 115
90 72 42 346 358 27 37 73 100 117 135 145 131 103 125 151 148 149 149 148 150 154 157 160 166 169 170 169 168 167 165 163 161 159 159 158 157 155 153 150 147 145 144 143 140 140 141 145 151
115 85 39 7 14 347 333 28 105 112 120 135 125 130 160 187 158 148 149 150 153 157 162 163 167 170 172 174 175 174 172 171 169 168 168 168 167 167 167 166 166 166 167 167 166 173 186 204 249
86 75 68 5 342 304 324 16 43 67 88 76 92 147 164 167 153 145 149 152 160 166 171 171 171 173 174 176 182 180 179 179 177 177 177 175 175 177 179 181 183 184 186 189 192 203 218 236 264
88 109 175 192 222 260 315 355 44 75 73 61 73 108 146 157 157 158 163 168 173 177 182 181 181 179 178 182 183 182 182 183 182 182 182 179 182 187 191 197 197 197 200 204 210 220 233 245 262
110 151 172 186 217 256 318 344 33 102 91 162 155 154 160 165 167 171 175 179 182 183 184 186 186 184 182 184 178 182 183 183 186 188 188 185 189 199 207 204 207 207 209 215 224 232 242 250 257
66 163 163 183 206 216 252 346 42 51 31 156 152 152 158 168 176 181 183 186 184 184 190 188 188 187 187 184 181 184 184 187 192 197 197 190 192 201 201 200 204 206 211 216 226 231 242 252 257
31 295 174 184 201 229 350 45 71 26 17 79 103 113 131 154 169 195 198 191 182 186 191 191 190 189 188 183 183 186 190 193 197 200 202 196 192 192 190 198 204 211 215 217 222 228 235 241 245
246 269 303 311 301 6 50 36 49 10 16 63 75 80 82 73 65 46 17 228 189 194 196 189 190 190 186 186 187 189 192 194 196 202 205 200 195 191 189 195 203 213 217 218 219 223 222 222 202
336 345 348 356 9 26 79 42 19 359 31 47 50 54 53 48 48 40 26 22 27 299 226 201 193 188 188 190 191 190 193 193 196 203 206 205 200 195 193 197 201 211 217 218 215 220 205 197 169
17 27 6 356 22 14 78 61 357 7 44 40 35 38 42 38 36 33 29 28 24 19 2 320 219 200 195 194 195 194 194 193 198 202 204 207 205 198 190 193 199 204 204 200 190 180 163 174 154
26 16 355 350 15 26 74 69 10 22 45 41 33 30 31 29 26 23 25 26 25 23 12 358 345 261 214 205 200 198 192 194 197 199 200 204 206 200 186 188 192 186 180 179 181 159 155 157 162
352 3 3 8 5 48 70 64 33 32 44 42 33 28 25 24 17 14 17 20 19 21 20 14 4 353 313 242 213 199 196 196 194 196 198 199 198 193 184 180 180 170 161 165 157 143 135 148 158
80 65 36 20 11 54 75 64 43 35 38 34 25 21 17 13 8 9 12 13 14 15 15 10 0 350 346 287 227 204 201 198 198 196 193 191 187 183 177 172 167 161 163 168 157 141 136 137 135
55 54 15 335 355 57 86 68 48 42 37 30 24 17 9 3 3 3 3 8 8 6 6 5 355 343 329 296 249 226 212 198 197 193 189 183 176 172 172 166 165 158 155 157 155 140 138 148 139
37 46 347 319 351 39 105 62 31 26 28 24 19 13 7 2 359 356 355 358 1 2 0 357 346 341 331 315 274 207 173 158 176 184 188 183 169 161 157 165 161 160 159 165 165 154 149 161 172
334 325 318 312 12 325 43 95 22 357 12 13 6 2 1 355 353 351 349 351 353 351 350 348 346 344 340 333 298 218 199 201 196 179 176 151 149 153 151 156 161 159 162 165 175 168 159 156 171
302 300 300 288 169 43 15 98 11 357 4 357 353 352 354 350 345 343 344 343 343 345 347 347 347 351 348 349 340 279 220 206 168 156 159 157 150 146 157 164 164 165 167 174 181 173 167 170 173
335 355 23 43 70 55 349 75 27 3 344 338 342 343 345 343 341 339 340 341 342 343 348 350 351 352 352 357 1 2 205 175 157 164 170 165 157 157 159 155 159 163 169 178 185 183 176 182 182
23 45 32 22 30 41 21 71 33 333 335 333 333 333 336 340 342 339 339 340 339 342 348 350 351 354 355 4 11 17 35 79 127 149 156 150 152 162 167 162 158 166 171 177 183 184 185 192 191
16 76 108 113 318 346 31 53 306 323 332 331 334 337 342 347 345 343 340 338 339 346 350 351 357 359 0 9 16 24 37 53 65 77 97 113 122 131 145 145 151 164 165 187 195 189 200 201 201
24 18 137 139 65 73 45 6 316 334 344 348 351 350 350 350 346 345 347 348 350 355 354 358 7 9 8 13 26 36 42 55 64 66 70 79 89 107 103 98 108 188 197 221 210 197 201 200 199
51 41 54 68 77 69 43 9 332 332 337 343 347 347 346 351 353 351 352 353 355 354 356 11 17 18 18 22 32 46 44 51 60 64 64 65 65 59 56 57 49 328 296 267 208 188 206 192 201
8 24 57 77 90 111 60 333 305 304 318 329 334 337 340 346 349 353 352 353 357 1 7 14 19 26 27 28 33 40 41 46 56 59 54 57 64 59 55 58 40 341 309 292 214 210 202 191 211
45 30 75 104 68 76 115 286 292 294 301 311 320 328 336 341 342 346 348 353 360 5 10 14 19 25 23 22 32 37 37 43 50 47 37 34 33 36 40 45 45 28 16 18 5 261 210 196 208
Height
1518 1516 1516 1517 1519 1529 1530 1521 1513 1511 1511 1511 1509 1511 1514 1519 1522 1529 1527 1528 1531 1534 1536 1539 1541 1542 1544 1545 1546 1546 1547 1548 1548 1549 1550 1550 1551 1551 1552 1552 1552 1553 1553 1554 1555 1555 1556 1557 1557
1518 1516 1517 1517 1528 1542 1532 1518 1514 1510 1511 1511 1512 1514 1516 1520 1520 1523 1525 1529 1532 1534 1536 1539 1541 1543 1544 1545 1546 1547 1548 1548 1549 1550 1550 1551 1552 1552 1552 1553 1553 1553 1554 1554 1555 1556 1556 1557 1558
1517 1516 1518 1520 1529 1536 1528 1516 1511 1509 1509 1509 1513 1516 1518 1521 1522 1523 1526 1530 1532 1535 1537 1539 1541 1543 1544 1545 1546 1547 1548 1549 1550 1550 1551 1552 1552 1553 1553 1553 1554 1554 1554 1555 1555 1556 1557 1557 1558
1517 1517 1518 1524 1526 1520 1515 1511 1509 1510 1512 1512 1514 1518 1521 1523 1523 1524 1528 1531 1533 1535 1537 1539 1541 1543 1544 1546 1547 1547 1548 1549 1550 1551 1552 1552 1553 1553 1554 1554 1554 1555 1555 1555 1556 1556 1557 1558 1559
1516 1517 1523 1528 1523 1515 1510 1508 1509 1511 1514 1516 1515 1521 1524 1525 1524 1526 1529 1532 1534 1536 1538 1540 1541 1543 1544 1545 1547 1547 1548 1549 1550 1551 1552 1553 1553 1554 1554 1555 1555 1555 1555 1556 1556 1557 1557 1558 1559
1517 1518 1531 1534 1524 1514 1510 1510 1510 1513 1516 1517 1518 1522 1526 1526 1526 1528 1531 1533 1535 1536 1538 1540 1542 1543 1544 1545 1546 1547 1548 1549 1550 1551 1552 1553 1553 1554 1555 1555 1555 1556 1556 1556 1557 1557 1558 1559 1559
1519 1523 1531 1530 1526 1519 1513 1511 1510 1513 1515 1517 1518 1522 1527 1529 1528 1529 1532 1534 1536 1537 1539 1540 1542 1543 1544 1545 1546 1547 1548 1549 1550 1551 1552 1553 1553 1554 1554 1555 1555 1555 1556 1556 1557 1557 1558 1559 1560
1519 1524 1530 1532 1529 1523 1515 1512 1512 1512 1515 1517 1517 1520 1525 1528 1529 1530 1533 1535 1537 1538 1539 1540 1541 1542 1544 1545 1546 1547 1548 1549 1550 1551 1552 1552 1553 1554 1554 1555 1555 1555 1556 1556 1557 1558 1559 1560 1560
1520 1530 1537 1534 1532 1525 1516 1514 1514 1514 1515 1517 1517 1518 1520 1525 1528 1530 1532 1534 1536 1537 1538 1539 1540 1542 1543 1544 1545 1546 1547 1548 1549 1550 1551 1552 1553 1554 1554 1555 1555 1555 1556 1556 1557 1558 1559 1560 1561
1520 1533 1532 1528 1526 1523 1518 1516 1515 1517 1517 1519 1519 1520 1522 1524 1527 1528 1529 1531 1533 1535 1537 1538 1539 1540 1541 1542 1544 1545 1546 1547 1548 1549 1550 1551 1552 1553 1554 1554 1555 1555 1556 1556 1557 1558 1559 1560 1561
1520 1526 1525 1524 1522 1520 1519 1518 1517 1517 1520 1520 1519 1521 1523 1525 1526 1527 1527 1528 1530 1532 1534 1536 1537 1539 1540 1541 1542 1543 1544 1545 1547 1548 1549 1550 1551 1552 1553 1554 1554 1555 1555 1556 1557 1558 1560 1561 1562
1520 1521 1521 1522 1521 1520 1519 1519 1519 1519 1521 1521 1520 1521 1523 1524 1525 1526 1526 1527 1529 1530 1532 1534 1535 1537 1538 1539 1540 1542 1543 1544 1545 1546 1547 1549 1550 1551 1552 1553 1554 1555 1556 1557 1558 1559 1560 1561 1561
1520 1520 1520 1520 1520 1519 1519 1520 1521 1523 1522 1521 1522 1523 1525 1526 1527 1528 1528 1528 1528 1529 1530 1531 1533 1534 1535 1537 1538 1540 1541 1542 1543 1545 1546 1547 1548 1550 1551 1552 1554 1555 1556 1557 1558 1559 1559 1560 1561
1519 1519 1519 1519 1519 1520 1520 1523 1524 1528 1526 1524 1524 1526 1527 1527 1528 1528 1528 1528 1528 1528 1528 1529 1530 1531 1533 1534 1536 1537 1539 1540 1541 1542 1544 1545 1546 1548 1549 1551 1553 1554 1555 1557 1558 1558 1559 1560 1561
1518 1519 1520 1520 1519 1521 1521 1529 1532 1532 1529 1528 1528 1529 1529 1528 1528 1528 1527 1527 1527 1528 1528 1528 1528 1529 1530 1531 1533 1535 1536 1537 1539 1540 1542 1543 1544 1546 1547 1549 1551 1553 1554 1555 1557 1558 1559 1559 1560
1521 1526 1532 1526 1523 1523 1527 1540 1535 1534 1532 1532 1532 1532 1531 1530 1530 1529 1528 1526 1526 1526 1527 1527 1528 1528 1528 1529 1530 1531 1533 1534 1536 1537 1539 1540 1542 1544 1545 1547 1549 1551 1552 1554 1555 1556 1557 1559 1560
1534 1540 1538 1532 1527 1526 1530 1540 1540 1537 1535 1536 1536 1536 1534 1532 1531 1530 1528 1527 1525 1524 1524 1525 1525 1525 1526 1526 1527 1528 1530 1531 1533 1534 1536 1537 1539 1541 1543 1545 1546 1548 1550 1552 1553 1554 1556 1557 1558
1545 1543 1541 1539 1534 1532 1538 1544 1544 1542 1540 1541 1541 1539 1537 1535 1534 1532 1530 1527 1525 1524 1523 1522 1522 1522 1523 1524 1524 1526 1526 1527 1529 1530 1532 1534 1536 1537 1539 1542 1544 1546 1547 1549 1551 1552 1554 1555 1556
1539 1543 1545 1540 1536 1538 1545 1549 1550 1549 1546 1546 1545 1543 1541 1539 1536 1533 1530 1528 1525 1523 1521 1519 1519 1518 1519 1519 1520 1521 1521 1523 1524 1526 1527 1529 1531 1533 1535 1538 1540 1542 1544 1546 1548 1549 1551 1552 1554
1541 1546 1548 1543 1537 1540 1549 1554 1555 1555 1555 1554 1551 1548 1544 1540 1535 1531 1529 1527 1524 1521 1519 1517 1516 1515 1515 1515 1515 1517 1517 1518 1520 1522 1524 1525 1527 1529 1531 1533 1536 1538 1541 1543 1544 1545 1547 1549 1551
1544 1548 1548 1546 1542 1541 1548 1560 1561 1559 1558 1556 1554 1550 1547 1543 1538 1533 1529 1526 1523 1520 1518 1515 1514 1512 1511 1511 1511 1512 1513 1514 1514 1517 1519 1521 1523 1525 1527 1530 1532 1534 1537 1539 1540 1542 1543 1545 1547
1551 1543 1542 1542 1549 1556 1551 1569 1571 1564 1560 1557 1555 1552 1547 1543 1539 1535 1530 1526 1523 1520 1517 1514 1511 1509 1507 1506 1506 1507 1507 1507 1509 1511 1513 1516 1518 1520 1523 1525 1528 1531 1533 1535 1537 1538 1539 1541 1542
1547 1541 1540 1541 1547 1558 1558 1569 1577 1568 1566 1563 1559 1554 1548 1544 1540 1535 1530 1526 1523 1519 1516 1513 1510 1507 1504 1503 1502 1502 1502 1503 1504 1506 1508 1510 1512 1515 1518 1520 1523 1525 1528 1531 1532 1534 1535 1536 1538
1545 1543 1543 1549 1557 1573 1572 1574 1582 1578 1575 1568 1561 1556 1550 1545 1540 1535 1530 1526 1522 1518 1515 1512 1508 1505 1503 1500 1498 1498 1498 1499 1500 1502 1504 1506 1508 1510 1512 1514 1518 1521 1524 1526 1528 1530 1531 1532 1533
1551 1560 1570 1573 1580 1583 1574 1578 1587 1580 1575 1570 1564 1558 1552 1545 1539 1534 1529 1524 1521 1518 1514 1511 1508 1505 1502 1499 1497 1496 1496 1497 1498 1499 1502 1503 1505 1507 1508 1511 1513 1517 1520 1522 1525 1526 1527 1528 1529
1559 1565 1581 1586 1587 1585 1580 1585 1586 1578 1575 1570 1564 1558 1552 1545 1539 1534 1529 1525 1521 1518 1514 1512 1509 1506 1503 1500 1498 1496 1496 1496 1497 1498 1500 1502 1503 1505 1506 1509 1512 1514 1517 1519 1521 1523 1524 1525 1526
1564 1568 1568 1578 1579 1587 1588 1587 1582 1577 1573 1569 1564 1559 1552 1546 1540 1534 1529 1525 1522 1518 1515 1512 1509 1507 1504 1502 1500 1498 1497 1497 1498 1499 1500 1501 1502 1504 1505 1507 1509 1512 1514 1516 1518 1520 1521 1522 1523
1565 1567 1575 1582 1589 1593 1592 1592 1592 1581 1575 1570 1565 1560 1554 1548 1541 1535 1530 1526 1523 1520 1517 1514 1511 1509 1507 1504 1503 1501 1500 1500 1500 1500 1501 1502 1503 1504 1505 1506 1508 1510 1512 1515 1516 1518 1519 1520 1521
1572 1573 1578 1585 1588 1597 1599 1599 1587 1583 1578 1573 1568 1562 1556 1550 1544 1538 1533 1529 1525 1521 1518 1516 1513 1511 1509 1507 1506 1504 1503 1503 1503 1503 1503 1504 1504 1505 1506 1507 1509 1510 1511 1513 1515 1516 1518 1519 1520
1573 1575 1579 1589 1595 1596 1599 1601 1583 1581 1578 1574 1569 1563 1558 1552 1547 1542 1536 1532 1528 1524 1521 1518 1516 1514 1512 1511 1509 1508 1507 1506 1506 1506 1506 1506 1507 1507 1508 1509 1510 1510 1512 1513 1515 1516 1517 1518 1519